Flag for Australia Weather past 2 weeks in Darwin, Northern Territory, Australia

Now
90 °F

Sunny.


Feels Like: 86 °F
Forecast: 72 / 87 °F
Wind: 17 mph from Northeast

Location: Darwin Airport

Current Time: Jul 31, 2015 at 3:25:41 PM

Latest Report: Jul 31, 2015 at 3:00 PM


Visibility: 10 mi

Pressure: 29.86 "Hg

Humidity: 21%

Dew point: 45 °F

Location of DarwinLocation

Historic Weather in Darwin — Graph

°F

Darwin temperature yesterday

Maximum temperature yesterday: 91 °F (at 3:30 PM)
Minimum temperature yesterday: 70 °F (at 12:30 AM)
Average temperature yesterday: 78 °F

Past Weeks' High & Low Weather Summary

 TemperatureHumidityPressure
High93 °F (Jul 27, 1:22 PM)100% (Jul 24, 4:30 AM)30.07 "Hg (Jul 24, 4:30 AM)
Low61 °F (Jul 18, 7:30 AM)13% (Jul 18, 1:00 PM)29.89 "Hg (Jul 25, 3:30 PM)
Average76 °F58%29.99 "Hg
* Reported Jul 16 2:30 PM — Jul 31 2:30 PM, Darwin, Weather by CustomWeather, © 2015

Note: Actual official high and low records may vary slightly from our data, if they occured in-between our weather recording intervals... More about our weather records

Advertising

Darwin weather history for previous 24 hours

 ConditionsComfort  
Time TempWeatherWind HumidityBarometerVisibility
2:30 PM
Fri, Jul 31
90 °FSunny.17 mph26%29.89 "Hg10 mi
2:00 PM90 °FSunny.15 mph26%29.89 "Hg10 mi
1:30 PM90 °FSunny.17 mph26%29.92 "Hg10 mi
1:00 PM88 °FSunny.20 mph27%29.92 "Hg10 mi
12:30 PM88 °FSunny.18 mph27%29.95 "Hg10 mi
12:00 PM86 °FSunny.20 mph25%29.95 "Hg10 mi
11:30 AM86 °FSunny.17 mph29%29.98 "Hg10 mi
11:00 AM84 °FSunny.17 mph35%29.98 "Hg10 mi
10:30 AM82 °FSunny.15 mph40%30.01 "Hg10 mi
10:00 AM81 °FSunny.15 mph45%30.01 "Hg10 mi
9:30 AM79 °FSunny.15 mph45%30.01 "Hg10 mi
9:00 AM77 °FSunny.12 mph47%30.01 "Hg10 mi
8:30 AM75 °FSunny.8 mph74%30.01 "Hg10 mi
8:00 AM72 °FSunny.5 mph94%29.98 "Hg10 mi
7:30 AM68 °FClear.5 mph100%29.98 "HgN/A
7:00 AM68 °FClear.7 mph94%29.98 "HgN/A
6:30 AM68 °FClear.7 mph94%29.98 "Hg10 mi
6:00 AM66 °FClear.6 mph94%29.98 "Hg10 mi
5:30 AM66 °FClear.5 mph100%29.98 "Hg10 mi
5:00 AM66 °FClear.6 mph100%29.98 "Hg10 mi
4:30 AM68 °FClear.5 mph94%29.98 "Hg10 mi
4:00 AM66 °FClear.5 mph94%29.98 "Hg10 mi
3:30 AM68 °FClear.3 mph94%29.98 "Hg10 mi
3:00 AM68 °FClear.5 mph94%29.98 "Hg10 mi
2:30 AM68 °FClear.5 mph94%29.98 "Hg10 mi
2:00 AM70 °FClear.5 mph88%29.98 "Hg10 mi
1:30 AM70 °FClear.3 mph94%29.98 "Hg10 mi
1:00 AM72 °FClear.5 mph88%29.98 "Hg10 mi
12:30 AM73 °FClear.7 mph89%29.98 "Hg10 mi
12:00 AM75 °FClear.8 mph83%30.01 "Hg10 mi
11:30 PM
Thu, Jul 30
75 °FClear.7 mph83%30.01 "Hg10 mi
11:00 PM75 °FClear.7 mph83%30.01 "Hg10 mi
10:30 PM75 °FClear.7 mph83%30.01 "Hg10 mi
10:00 PM75 °FClear.7 mph83%30.01 "Hg10 mi
9:30 PM77 °FClear.7 mph74%29.98 "Hg10 mi
9:00 PM77 °FClear.7 mph74%29.98 "Hg10 mi
8:30 PM77 °FClear.6 mph69%29.95 "Hg10 mi
8:00 PM77 °FClear.7 mph69%29.95 "Hg10 mi
7:30 PM79 °FClear.7 mph65%29.92 "Hg10 mi
7:00 PM79 °FSunny.9 mph65%29.92 "Hg10 mi
6:30 PM82 °FSunny.9 mph55%29.92 "Hg10 mi
6:00 PM84 °FSunny.10 mph48%29.92 "Hg10 mi
5:30 PM84 °FSunny.12 mph51%29.89 "Hg10 mi
5:00 PM86 °FSunny.12 mph46%29.89 "Hg10 mi
4:30 PM86 °FSunny.14 mph49%29.89 "Hg10 mi
4:00 PM88 °FSunny.15 mph43%29.89 "Hg10 mi
3:30 PM91 °FSunny.17 mph36%29.89 "Hg10 mi
3:00 PM88 °FSunny.16 mph46%29.92 "Hg10 mi
Weather by CustomWeather, © 2015

See weather overviewHow to use our weather pages